SCP
0 0 0 0 -0 -0 -0 -0 0 0 0 0 0 -0 0 0 0 -0 0 0 0 0
0 0 0 0 -0 -0 -0 -0 0 -0 0 0 0 0 0 0 0 -0 0 0 0 0
0 0 0 0 -0 -0 -0 -0 0 -0 0 0 0 0 0 0 0 0 0 0 0 0
0 0 0 0 0 -0 -0 0 0 -0 -0 0 0 0 0 0 0 0 0 0 0 0
0 0 0 0 -0 -0 0 0 0 -0 -0 -0 0 0 0 0 0 0 0 0 0 0
0 0 0 0 0 -0 0 -0 0 0 0 0 0 0 0 0 0 0 0 0 0 0
0 0 0 0 -0 -0 -0 -0 -0 -0 0 0 0 0 0 0 0 0 0 0 0 0
0 0 0 0 0 0 -0 -0 -0 -0 0 0 0 0 0 0 0 0 0 0 0 0
0 0 0 0 0 0 0 0 0 -0 -0 0 0 -0 -0 0 0 0 0 0 0 0
0 0 0 0 0 0 0 0 0 0 0 0 0 0 0 0 0 0 0 0 0 0
0 0 0 0 0 0 0 0 0 0 0 0 0 0 0 0 0 0 0 0 0 0
0 0 0 0 0 0 0 0 0 0 0 0 -0 0 0 0 0 0 0 -0 -0 0
0 0 0 0 0 0 0 0 -0 0 0 0 0 -0 -0 -0 0 0 -0 0 0 0
-0 0 0 0 0 0 0 0 0 0 0 0 0 0 0 0 0 0 -0 0 0 0
Wind_Speed_500mb
9 12 15 15 10 6 6 6 10 17 15 16 19 23 28 26 21 20 19 15 8 8
8 12 14 11 8 8 8 5 12 16 18 19 23 24 24 23 25 23 18 11 5 5
10 12 11 8 10 9 8 9 13 20 20 21 22 25 26 26 26 21 19 14 10 6
9 13 12 9 12 13 10 12 14 20 22 22 22 24 24 25 23 22 20 18 13 15
9 13 10 10 11 12 13 16 16 19 20 21 22 22 21 20 20 22 23 18 18 18
12 15 17 18 14 13 14 16 17 18 20 22 23 22 18 15 19 21 17 14 15 23
13 15 20 21 21 15 14 16 17 19 21 22 22 21 18 19 21 17 15 14 15 18
15 16 15 18 21 23 17 17 18 20 25 25 20 21 19 22 25 21 15 18 19 18
19 18 15 16 17 16 19 17 21 20 18 23 22 18 21 29 24 17 17 26 30 28
25 23 18 17 17 15 15 18 19 11 14 22 22 22 23 28 18 15 24 36 41 42
30 27 21 19 18 15 16 20 18 16 15 18 35 26 32 31 23 21 30 26 38 45
34 31 26 23 19 16 15 21 19 20 22 20 39 32 33 37 34 33 36 44 42 42
31 34 30 26 22 20 17 19 22 23 22 27 30 37 34 43 38 36 42 42 34 35
33 36 33 29 26 22 19 20 21 22 24 23 25 30 29 41 43 35 35 32 42 33
Wind_Direction_500mb
2 356 358 0 10 63 106 170 178 174 163 164 164 169 176 184 192 181 183 203 196 193
9 11 11 23 51 93 81 114 156 158 156 154 156 156 164 176 180 182 184 179 163 167
32 21 18 52 69 109 84 116 144 163 159 156 151 156 164 167 171 178 175 173 173 134
58 41 33 93 84 96 103 115 126 157 169 170 158 156 165 171 169 178 182 171 163 154
85 46 55 107 104 95 97 114 126 130 154 167 166 166 168 176 173 172 168 167 160 153
115 76 80 101 103 97 99 110 122 132 140 156 161 167 170 168 158 149 158 170 174 167
141 117 90 94 99 87 93 117 120 121 131 139 150 155 151 148 154 160 147 146 148 167
160 149 123 106 100 80 93 112 120 121 125 131 138 148 149 150 146 151 166 179 165 156
168 163 148 121 109 96 94 128 118 123 134 139 145 145 146 142 134 129 119 134 139 139
171 166 157 134 118 110 95 119 133 113 138 170 157 159 152 163 146 113 121 135 144 144
175 172 165 148 129 106 98 114 132 101 107 146 167 147 159 150 142 129 129 136 139 137
184 181 174 165 144 120 110 108 108 107 84 116 151 155 161 156 147 139 132 135 131 130
190 191 183 169 160 140 124 121 108 107 117 104 133 159 153 161 157 155 144 151 144 133
197 194 190 178 170 161 145 145 133 121 117 128 126 132 148 185 194 184 165 166 155 146
Wind_Speed_850mb
9 12 15 15 10 6 6 6 10 17 15 16 19 23 28 26 21 20 19 15 8 8
8 12 14 11 8 8 8 5 12 16 18 19 23 24 24 23 25 23 18 11 5 5
10 12 11 8 10 9 8 9 13 20 20 21 22 25 26 26 26 21 19 14 10 6
9 13 12 9 12 13 10 12 14 20 22 22 22 24 24 25 23 22 20 18 13 15
9 13 10 10 11 12 13 16 16 19 20 21 22 22 21 20 20 22 23 18 18 18
12 15 17 18 14 13 14 16 17 18 20 22 23 22 18 15 19 21 17 14 15 23
13 15 20 21 21 15 14 16 17 19 21 22 22 21 18 19 21 17 15 14 15 18
15 16 15 18 21 23 17 17 18 20 25 25 20 21 19 22 25 21 15 18 19 18
19 18 15 16 17 16 19 17 21 20 18 23 22 18 21 29 24 17 17 26 30 28
25 23 18 17 17 15 15 18 19 11 14 22 22 22 23 28 18 15 24 36 41 42
30 27 21 19 18 15 16 20 18 16 15 18 35 26 32 31 23 21 30 26 38 45
34 31 26 23 19 16 15 21 19 20 22 20 39 32 33 37 34 33 36 44 42 42
31 34 30 26 22 20 17 19 22 23 22 27 30 37 34 43 38 36 42 42 34 35
33 36 33 29 26 22 19 20 21 22 24 23 25 30 29 41 43 35 35 32 42 33
Wind_Direction_850mb
2 356 358 0 10 63 106 170 178 174 163 164 164 169 176 184 192 181 183 203 196 193
9 11 11 23 51 93 81 114 156 158 156 154 156 156 164 176 180 182 184 179 163 167
32 21 18 52 69 109 84 116 144 163 159 156 151 156 164 167 171 178 175 173 173 134
58 41 33 93 84 96 103 115 126 157 169 170 158 156 165 171 169 178 182 171 163 154
85 46 55 107 104 95 97 114 126 130 154 167 166 166 168 176 173 172 168 167 160 153
115 76 80 101 103 97 99 110 122 132 140 156 161 167 170 168 158 149 158 170 174 167
141 117 90 94 99 87 93 117 120 121 131 139 150 155 151 148 154 160 147 146 148 167
160 149 123 106 100 80 93 112 120 121 125 131 138 148 149 150 146 151 166 179 165 156
168 163 148 121 109 96 94 128 118 123 134 139 145 145 146 142 134 129 119 134 139 139
171 166 157 134 118 110 95 119 133 113 138 170 157 159 152 163 146 113 121 135 144 144
175 172 165 148 129 106 98 114 132 101 107 146 167 147 159 150 142 129 129 136 139 137
184 181 174 165 144 120 110 108 108 107 84 116 151 155 161 156 147 139 132 135 131 130
190 191 183 169 160 140 124 121 108 107 117 104 133 159 153 161 157 155 144 151 144 133
197 194 190 178 170 161 145 145 133 121 117 128 126 132 148 185 194 184 165 166 155 146